Gainesville, GA

5:34 AM EDT on May 25, 2018 (GMT -0400)
Gilmer Memorial

Weather History for KGVL - August, 2012

Change the Weather History Date:

Thursday, August 2, 2012

  Actual Average Record
Temperature  
Mean Temperature 80 °F 79 °F  
Max Temperature 91 °F 88 °F 98 °F (1951)
Min Temperature 70 °F 70 °F 58 °F (1936)
Cooling Degree Days 16 14  
Month to date cooling degree days 28  
Year to date cooling degree days 950  
Since 1 June cooling degree days 775  
Growing Degree Days 30 (Base 50)    
Moisture  
Dew Point 66 °F    
Average Humidity 64    
Maximum Humidity 90    
Minimum Humidity 42    
Precipitation  
Precipitation 0.00 in 0.16 in 2.45 in (1971)
Month to date precipitation 0.32  
Year to date precipitation 32.14  
Sea Level Pressure  
Sea Level Pressure 29.91 in    
Wind  
Wind Speed 3 mph (West)    
Max Wind Speed 12 mph    
Max Gust Speed -    
Visibility 10 miles    
Events      
T = Trace of Precipitation, MM = Missing Value Source: NWS Daily Summary

Daily Weather History Graph

Daily Weather History Graph

Search for Another Location

Airport or City:

Astronomy

Aug. 02, 2012 Rise Set
Actual Time 6:47 AM EDT 8:35 PM EDT
Civil Twilight 6:19 AM EDT 9:02 PM EDT
Nautical Twilight 5:46 AM EDT 9:35 PM EDT
Astronomical Twilight 5:11 AM EDT 10:10 PM EDT
Moon 8:46 PM EDT (8/2) 7:19 AM EDT (8/2)
Length of Visible Light 14h 42m
Length of Day
13h 47m
Full, 100% of the Moon is Illuminated
Aug 2
Full
Aug 9
Last Quarter
Aug 17
New
Aug 24
First Quarter
Aug 31
Full

Hourly Weather History & Observations

Time (EDT) Temp. Heat Index Dew Point Humidity Pressure Visibility Wind Dir Wind Speed Gust Speed Precip Events Conditions
12:53 AM 73.9 °F - 64.9 °F 73% 29.92 in 10.0 mi Calm Calm - N/A   Clear
1:53 AM 73.0 °F - 66.0 °F 79% 29.91 in 10.0 mi Calm Calm - N/A   Clear
2:53 AM 72.0 °F - 64.9 °F 78% 29.89 in 10.0 mi Calm Calm - N/A   Clear
3:53 AM 71.1 °F - 64.0 °F 78% 29.88 in 10.0 mi SSW 5.8 mph - N/A   Clear
5:53 AM 70.0 °F - 64.9 °F 84% 29.92 in 10.0 mi Calm Calm - N/A   Clear
6:53 AM 70.0 °F - 66.9 °F 90% 29.92 in 10.0 mi Calm Calm - N/A   Clear
7:53 AM 72.0 °F - 66.9 °F 84% 29.95 in 10.0 mi North 3.5 mph - N/A   Clear
8:53 AM 75.0 °F - 66.0 °F 73% 29.95 in 10.0 mi NW 4.6 mph - N/A   Clear
9:53 AM 80.1 °F 82.1 °F 66.0 °F 62% 29.95 in 10.0 mi WSW 3.5 mph - N/A   Clear
10:53 AM 84.0 °F 86.3 °F 66.0 °F 55% 29.95 in 10.0 mi WNW 8.1 mph - N/A   Clear
11:53 AM 86.0 °F 88.8 °F 66.9 °F 53% 29.95 in 10.0 mi Variable 6.9 mph - N/A   Clear
12:53 PM 87.1 °F 89.2 °F 66.0 °F 49% 29.95 in 10.0 mi WNW 6.9 mph - N/A   Clear
1:53 PM 88.0 °F 90.7 °F 66.9 °F 49% 29.93 in 10.0 mi Variable 3.5 mph - N/A   Clear
2:53 PM 91.0 °F 95.2 °F 68.0 °F 47% 29.89 in 10.0 mi NW 11.5 mph - N/A   Clear
3:53 PM 91.0 °F 94.3 °F 66.9 °F 45% 29.87 in 10.0 mi NW 10.4 mph - N/A   Clear
4:53 PM 91.9 °F 95.9 °F 68.0 °F 45% 29.87 in 10.0 mi NW 6.9 mph - N/A   Clear
5:53 PM 91.9 °F 95.9 °F 68.0 °F 45% 29.86 in 10.0 mi WSW 6.9 mph - N/A   Clear
6:53 PM 91.0 °F 93.0 °F 64.9 °F 42% 29.86 in 10.0 mi WNW 5.8 mph - N/A   Clear
7:53 PM 89.1 °F 91.3 °F 66.0 °F 46% 29.89 in 10.0 mi NW 4.6 mph - N/A   Clear
8:53 PM 81.0 °F 84.1 °F 69.1 °F 67% 29.90 in 10.0 mi SSW 6.9 mph - N/A   Partly Cloudy
9:53 PM 78.1 °F - 66.9 °F 68% 29.94 in 10.0 mi SW 8.1 mph - N/A   Clear
10:53 PM 75.9 °F - 68.0 °F 76% 29.94 in 10.0 mi SW 8.1 mph - N/A   Clear
11:53 PM 75.0 °F - 66.9 °F 76% 29.93 in 10.0 mi Calm Calm - N/A   Clear